Current weather by "City, St" or "zip code"  
 

Current Conditions: Bessemer Airport, AL

Mostly Cloudy


90.0 F

Last Updated on Jul 3 2022, 1:56 pm CDT
Humidity: 56%
Wind Speed: W 5.8 mph
Barometer 30.08 in
Dewpoint: 72.0 F
Visibility: 10.00 mi
Precip: --
Heat Index: 97 F
Wind Chill: NA
Current conditions at:

Bessemer Airport, AL (KEKY)

Lat: 33.3126 Lon: 86.9263

Local Radar Image active severe weather and emergency alerts image image weather storm and storm spotter reports image weather observation monitoring service image
Local
Radar
Active
Alerts
Storm Reports Obs
Monitoring

Sign-up For Email & Text Message Weather Alert Notification Services



Advertise Here

Observation History for Bessemer Airport, AL


Time Wind
(mph)
Vis
(mi)
Weather Precip (in) Temperature (F) Relative
Humidity
Wind
Chill
(F)
Heat
Index
(F)
Pressure
Air Dwpt altimeter
(in)
sea level
(mb)
Rmks
1:56 pm CDT W 5.8 10.00 Mostly Cloudy -- 90.0 72.0 56% NA 97 30.08 1003.2
12:56 pm CDT 3.5 10.00 Partly Cloudy -- 87.0 71.1 59% NA 93 30.11 1004.0
11:56 am CDT N 4.6 10.00 Fair -- 87.0 72.0 61% NA 93 30.13 1004.7
10:56 am CDT SW 4.6 10.00 Overcast -- 83.0 75.0 77% NA 90 30.14 1005.2
9:56 am CDT W 5.8 10.00 A Few Clouds -- 83.0 73.0 72% NA 89 30.14 1005.1
8:56 am CDT 4.6 10.00 A Few Clouds -- 79.0 73.0 82% NA NA 30.14 1005.2
7:56 am CDT N 0.0 10.00 Fair -- 75.0 73.0 94% NA NA 30.13 1004.9
6:56 am CDT W 4.6 10.00 Overcast -- 72.0 72.0 100% NA NA 30.12 1004.5
5:56 am CDT W 4.6 0.50 Fog -- 72.0 72.0 100% NA NA 30.11 1004.1
4:56 am CDT SW 3.5 1.00 Fog/Mist -- 72.0 72.0 100% NA NA 30.09 1003.4
3:56 am CDT SW 4.6 10.00 Partly Cloudy -- 73.0 73.0 100% NA NA 30.08 1003.1
2:56 am CDT 3.5 10.00 Overcast -- 73.0 73.0 100% NA NA 30.08 1003.1
1:56 am CDT SW 4.6 10.00 Fair -- 73.0 73.0 100% NA NA 30.06 1002.5
12:56 am CDT N 0.0 10.00 Fair -- 73.0 73.0 100% NA NA 30.05 1002.0
11:56 pm CDT N 0.0 10.00 Fair -- 74.0 73.0 97% NA NA 30.05 1002.2
10:56 pm CDT SW 3.5 10.00 Fair -- 76.0 73.9 94% NA NA 30.06 1002.5
9:56 pm CDT SW 5.8 10.00 Fair -- 78.0 73.0 85% NA NA 30.07 1002.7
8:56 pm CDT SW 8.1 10.00 A Few Clouds -- 79.0 72.0 79% NA NA 30.06 1002.3
7:56 pm CDT SW 6.9 10.00 A Few Clouds -- 82.0 73.0 74% NA 87 30.05 1002.0
6:56 pm CDT N 0.0 10.00 Fair -- 83.0 73.0 72% NA 89 30.01 1000.9
5:56 pm CDT SW 4.6 9.00 Fair -- 85.0 72.0 65% NA 91 30.00 1000.6
4:56 pm CDT SW 6.9 10.00 A Few Clouds -- 91.0 71.1 52% NA 98 30.01 1000.9
3:56 pm CDT 4.6 10.00 Mostly Cloudy -- 91.0 71.1 52% NA 98 30.02 1001.2

Regional Weather Observation


Bessemer Airport, AL (KEKY)

Mostly Cloudy
90.0 F

Birmingham, Birmingham International Airport, AL (KBHM)

Partly Cloudy
91.0 F

Tuscaloosa Regional Airport, AL (KTCL)

Partly Cloudy
88.0 F

Alabaster, Shelby County Airport, AL (KEET)

Fair
89.0 F

St Clair County Airport, AL (KPLR)

Fair
90.0 F

Merkel Field Sylacauga Municipal Airport, AL (KSCD)

Overcast
89.0 F

Advertise Here


Advertise Here